Weather History for LHKE - October, 2013

Change the Weather History Date:

Thursday, October 31, 2013

  Actual Average (LHBP) Record (LHBP)
Temperature  
Mean Temperature 50 °F -  
Max Temperature 60 °F 53 °F 73 °F (2000)
Min Temperature 39 °F 35 °F 21 °F (2006)
Degree Days  
Heating Degree Days 16    
Moisture  
Dew Point 37 °F    
Average Humidity 63    
Maximum Humidity 81    
Minimum Humidity 29    
Precipitation  
Precipitation 0.00 in - - ()
Sea Level Pressure  
Sea Level Pressure 30.32 in    
Wind  
Wind Speed 5 mph ()    
Max Wind Speed 11 mph    
Max Gust Speed -    
Visibility 7.3 miles    
Events      
Averages and records for this station are not official NWS values.
T = Trace of Precipitation, MM = Missing Value Source: Averaged Metar Reports

Daily Weather History Graph

Daily Weather History Graph

Search for Another Location

Airport or City:

Trip Planner

Search our weather history database for the weather conditions in past years. The results will help you decide how hot, cold, wet, or windy it might be!

Date:

Astronomy

Oct. 31, 2013 Rise Set
Actual Time 6:21 AM CET 4:26 PM CET
Civil Twilight 5:50 AM CET 4:58 PM CET
Nautical Twilight 5:14 AM CET 5:34 PM CET
Astronomical Twilight 4:39 AM CET 6:09 PM CET
Moon 2:40 AM CET (10/31) 2:44 PM CET (10/31)
Length of Visible Light 11h 07m
Length of Day
10h 04m
Waning Crescent, 11% of the Moon is Illuminated
Oct 31
Waning Crescent
Nov 3
New
Nov 10
First Quarter
Nov 17
Full
Nov 25
Last Quarter

Hourly Weather History & Observations

Time (CET) Temp. Windchill Dew Point Humidity Pressure Visibility Wind Dir Wind Speed Gust Speed Precip Events Conditions
12:15 AM 44.6 °F 40.8 °F 39.2 °F 81% 30.30 in - NW 6.7 mph - N/A   Clear
12:45 AM 42.8 °F 38.7 °F 37.4 °F 81% 30.30 in - NW 6.7 mph - N/A   Clear
1:15 AM 44.6 °F 42.3 °F 37.4 °F 76% 30.33 in - NW 4.5 mph - N/A   Clear
1:45 AM 46.4 °F 44.4 °F 41.0 °F 81% 30.33 in - WNW 4.5 mph - N/A   Clear
2:15 AM 46.4 °F 44.4 °F 41.0 °F 81% 30.33 in - NW 4.5 mph - N/A   Clear
2:45 AM 44.6 °F 42.3 °F 39.2 °F 81% 30.33 in - NW 4.5 mph - N/A   Clear
3:15 AM 44.6 °F 42.3 °F 39.2 °F 81% 30.33 in - NW 4.5 mph - N/A   Clear
3:45 AM 44.6 °F 42.3 °F 39.2 °F 81% 30.33 in 6.2 mi NNW 4.5 mph - N/A   Mostly Cloudy
4:15 AM 44.6 °F 42.3 °F 39.2 °F 81% 30.33 in 6.2 mi NW 4.5 mph - N/A   Mostly Cloudy
4:45 AM 44.6 °F 42.3 °F 37.4 °F 76% 30.33 in - North 4.5 mph - N/A   Clear
5:15 AM 48.2 °F - 37.4 °F 66% 30.33 in - NNE 4.5 mph - N/A   Clear
5:45 AM - - - N/A% - - NNE 8.9 mph - N/A   Clear
6:15 AM 46.4 °F 44.4 °F 37.4 °F 71% 30.33 in - NNE 4.5 mph - N/A   Clear
6:45 AM 48.2 °F - 37.4 °F 66% 30.36 in - NNE 4.5 mph - N/A   Clear
7:15 AM 48.2 °F - 37.4 °F 66% 30.36 in - NE 4.5 mph - N/A   Clear
7:45 AM 50.0 °F - 39.2 °F 66% 30.36 in - NE 6.7 mph - N/A   Clear
8:15 AM 51.8 °F - 37.4 °F 58% 30.36 in - NE 8.9 mph - N/A   Clear
8:45 AM - - - N/A% - - NNE 8.9 mph - N/A   Clear
9:15 AM 53.6 °F - 37.4 °F 54% 30.36 in - NE 8.9 mph - N/A   Clear
9:45 AM 55.4 °F - 35.6 °F 47% 30.36 in - NE 8.9 mph - N/A   Clear
10:15 AM 55.4 °F - 37.4 °F 51% 30.36 in - ENE 11.2 mph - N/A   Clear
10:45 AM 55.4 °F - 37.4 °F 51% 30.36 in - NE 8.9 mph - N/A   Clear
11:15 AM 57.2 °F - 37.4 °F 48% 30.36 in - NE 6.7 mph - N/A   Clear
11:45 AM - - - N/A% - 6.2 mi NNE 8.9 mph - N/A   Clear
12:15 PM 59.0 °F - 37.4 °F 45% 30.33 in - ENE 6.7 mph - N/A   Clear
12:45 PM 59.0 °F - 37.4 °F 45% 30.33 in - ENE 6.7 mph - N/A   Clear
1:15 PM 60.8 °F - 37.4 °F 42% 30.33 in - NNE 6.7 mph - N/A   Clear
1:45 PM 60.8 °F - 35.6 °F 39% 30.33 in - NNE 6.7 mph - N/A   Clear
2:15 PM 60.8 °F - 35.6 °F 39% 30.30 in - ENE 4.5 mph - N/A   Clear
2:45 PM - - - N/A% - 6.2 mi NE 6.7 mph - N/A   Clear
3:15 PM 59.0 °F - 33.8 °F 39% 30.30 in - ENE 4.5 mph - N/A   Clear
3:45 PM 59.0 °F - 33.8 °F 39% 30.30 in - ENE 4.5 mph - N/A   Clear
4:00 PM 58 °F - 35 °F 29% 30.32 in 19 mi ENE 4.5 mph - -   Clear
4:15 PM 57.2 °F - 35.6 °F 44% 30.30 in - ENE 2.2 mph - N/A   Clear
4:45 PM 51.8 °F - 33.8 °F 50% 30.30 in - NE 2.2 mph - N/A   Clear
5:15 PM 51.8 °F - 35.6 °F 54% 30.30 in - ESE 2.2 mph - N/A   Clear
5:45 PM - - - N/A% - - North - - N/A   Unknown
6:15 PM 46.4 °F - 33.8 °F 62% 30.30 in - Calm Calm - N/A   Clear
6:45 PM 44.6 °F - 33.8 °F 66% 30.30 in - Calm Calm - N/A   Clear
7:15 PM 42.8 °F - 33.8 °F 70% 30.30 in - Calm Calm - N/A   Clear
7:45 PM 42.8 °F - 33.8 °F 70% 30.30 in - Calm Calm - N/A   Clear
8:15 PM 41.0 °F - 33.8 °F 76% 30.30 in - NW 2.2 mph - N/A   Clear
8:45 PM - - - N/A% - - North - - N/A   Unknown
9:15 PM 41.0 °F - 33.8 °F 76% 30.30 in - Calm Calm - N/A   Clear
9:45 PM 41.0 °F - 33.8 °F 76% 30.30 in - Calm Calm - N/A   Clear
10:15 PM 39.2 °F - 33.8 °F 81% 30.30 in - Calm Calm - N/A   Clear
10:45 PM 42.8 °F - 37.4 °F 81% 30.30 in - ENE 2.2 mph - N/A   Clear
11:15 PM 46.4 °F - 37.4 °F 71% 30.30 in - Calm Calm - N/A   Clear
11:45 PM - - - N/A% - 0.1 mi North - - N/A   Mostly Cloudy